Back to catalog

CZ-2C DEB

AlivePO
NORAD 39204·DEBRIS·🇨🇳 China

Launched Jul 15, 2013 from Jiuquan Satellite Launch Center

Loading…

Next Passes (next 24 hours)

TLE

FreshSource: Space-Track

Epoch: Sep 14, 2026, 06:26 UTC

1 39204U 13035C   26257.26837058  .00013430  00000-0  98962-3 0  9999
2 39204  98.2207 179.8067 0035596 343.0038  16.9991 15.02952392702962

Track CZ-2C DEB in real time with AllMySat

Download on the App Store